{"data":{"norad_id":54066,"epoch":"2026-09-20T22:00:03.000096Z","epoch_age_seconds":50454,"freshness":"FRESH","line1":"1 54066U 22136R   26263.91670139  .00007216  00000+0  31603-3 0  9991","line2":"2 54066  53.1590 186.7374 0002298  80.1996 315.5810 15.23065546  5696","mean_motion":15.23065546,"eccentricity":0.0002298,"inclination_deg":53.159,"raan_deg":186.7374,"arg_perigee_deg":80.1996,"mean_anomaly_deg":315.581,"bstar":0.00031603,"rev_number":569,"period_min":94.546160786175,"perigee_km":495.02055960779,"apogee_km":498.180188905,"semimajor_km":6874.7373742564,"source":"CELESTRAK","updated_at":"2026-09-21T09:00:33.078405Z"}}